CFG2WR LTFM-LGSK

Flight info

Callsign CFG2WR
Flight time 0h 52m
Altitude 28000
Route BARPE1D/35L BARPE G12 GOLDO/N0437F240 G12 ALX G33 KOROS W58 ETEKA
Aircraft A339/H-SADE1E2E3GHIJ3J5M1P2RWXY/LB2D1

Departure

Time 2026-04-15 15:46
Airport İstanbul Airport (LTFM)

Arrival

Time 2026-04-15 16:38
Airport Skiathos Island National Airport (LGSK)
Time Latitude Longitude Altitude Speed Heading
2026-04-15 15:15 41.25749 28.73488 343 ft 0 kts 90°
2026-04-15 15:28 41.25749 28.73474 343 ft 2 kts 90°
2026-04-15 15:29 41.25749 28.73454 343 ft 2 kts 90°
2026-04-15 15:29 41.25749 28.73434 343 ft 2 kts 90°
2026-04-15 15:29 41.25749 28.73419 343 ft 0 kts 90°
2026-04-15 15:29 41.25749 28.73404 343 ft 2 kts 79°
2026-04-15 15:30 41.25744 28.73386 343 ft 2 kts 58°
2026-04-15 15:30 41.25735 28.73370 343 ft 2 kts 40°
2026-04-15 15:30 41.25722 28.73360 343 ft 2 kts 22°
2026-04-15 15:30 41.25708 28.73354 343 ft 2 kts
2026-04-15 15:31 41.25702 28.73354 343 ft 1 kts 359°
2026-04-15 15:31 41.25700 28.73354 343 ft 0 kts 359°
2026-04-15 15:34 41.25714 28.73354 343 ft 4 kts 359°
2026-04-15 15:34 41.25764 28.73352 343 ft 9 kts 355°
2026-04-15 15:34 41.25810 28.73304 343 ft 8 kts 296°
2026-04-15 15:34 41.25818 28.73218 343 ft 10 kts 272°
2026-04-15 15:35 41.25834 28.73138 343 ft 8 kts 319°
2026-04-15 15:35 41.25888 28.73119 343 ft 8 kts 359°
2026-04-15 15:35 41.25995 28.73117 343 ft 20 kts 360°
2026-04-15 15:35 41.26128 28.73117 343 ft 17 kts 359°
2026-04-15 15:36 41.26200 28.73088 343 ft 0 kts 315°
2026-04-15 15:37 41.26215 28.73034 343 ft 10 kts 278°
2026-04-15 15:37 41.26217 28.72969 343 ft 0 kts 269°
2026-04-15 15:41 41.26217 28.72968 343 ft 0 kts 269°
2026-04-15 15:41 41.26216 28.72856 343 ft 17 kts 269°
2026-04-15 15:42 41.26214 28.72693 343 ft 21 kts 269°
2026-04-15 15:42 41.26218 28.72546 343 ft 8 kts 299°
2026-04-15 15:42 41.26265 28.72520 343 ft 5 kts 358°
2026-04-15 15:42 41.26269 28.72519 343 ft 0 kts 359°
2026-04-15 15:45 41.26270 28.72519 343 ft 3 kts 359°
2026-04-15 15:45 41.26495 28.72515 343 ft 67 kts 359°
2026-04-15 15:45 41.27179 28.72503 343 ft 128 kts 360°
2026-04-15 15:46 41.28220 28.72483 538 ft 160 kts
2026-04-15 15:46 41.29322 28.72453 1245 ft 156 kts
2026-04-15 15:46 41.30372 28.72435 1977 ft 151 kts
2026-04-15 15:46 41.31432 28.72474 2477 ft 161 kts
2026-04-15 15:47 41.32630 28.72492 2906 ft 179 kts
2026-04-15 15:47 41.33917 28.72497 3333 ft 195 kts
2026-04-15 15:47 41.35358 28.72463 3749 ft 214 kts 353°
2026-04-15 15:47 41.36719 28.71558 4170 ft 235 kts 312°
2026-04-15 15:48 41.37391 28.69545 4691 ft 252 kts 275°
2026-04-15 15:48 41.37079 28.67196 5207 ft 269 kts 250°
2026-04-15 15:48 41.36325 28.64885 6037 ft 273 kts 248°
2026-04-15 15:48 41.35572 28.62609 6918 ft 273 kts 249°
2026-04-15 15:49 41.34853 28.60257 7770 ft 274 kts 251°
2026-04-15 15:49 41.34190 28.57926 8589 ft 276 kts 252°
2026-04-15 15:49 41.33538 28.55525 9423 ft 277 kts 253°
2026-04-15 15:49 41.32908 28.53131 10247 ft 278 kts 253°
2026-04-15 15:50 41.32279 28.50692 10889 ft 286 kts 253°
2026-04-15 15:50 41.31625 28.48129 11261 ft 304 kts 253°
2026-04-15 15:50 41.30926 28.45369 11604 ft 322 kts 253°
2026-04-15 15:50 41.30192 28.42469 11921 ft 340 kts 253°
2026-04-15 15:51 41.29424 28.39431 12215 ft 358 kts 253°
2026-04-15 15:51 41.28611 28.36219 12709 ft 370 kts 253°
2026-04-15 15:51 41.27798 28.33008 13542 ft 371 kts 252°
2026-04-15 15:51 41.26973 28.29753 14304 ft 374 kts 252°
2026-04-15 15:52 41.26143 28.26487 15016 ft 377 kts 252°
2026-04-15 15:52 41.25310 28.23217 15752 ft 380 kts 252°
2026-04-15 15:52 41.24455 28.19852 16497 ft 383 kts 252°
2026-04-15 15:52 41.23608 28.16527 17199 ft 385 kts 252°
2026-04-15 15:53 41.22746 28.13146 17916 ft 388 kts 252°
2026-04-15 15:53 41.21880 28.09752 18605 ft 391 kts 252°
2026-04-15 15:53 41.21001 28.06317 19278 ft 394 kts 252°
2026-04-15 15:53 41.20130 28.02915 19913 ft 398 kts 252°
2026-04-15 15:54 41.19235 27.99420 20532 ft 402 kts 252°
2026-04-15 15:54 41.18324 27.95880 21159 ft 405 kts 252°
2026-04-15 15:54 41.17407 27.92313 21752 ft 408 kts 253°
2026-04-15 15:54 41.16484 27.88726 22337 ft 411 kts 252°
2026-04-15 15:55 41.15558 27.85134 22906 ft 414 kts 253°
2026-04-15 15:55 41.14623 27.81516 23460 ft 417 kts 252°
2026-04-15 15:55 41.13682 27.77876 24019 ft 419 kts 252°
2026-04-15 15:55 41.12731 27.74208 24561 ft 421 kts 253°
2026-04-15 15:56 41.11779 27.70540 25116 ft 423 kts 253°
2026-04-15 15:56 41.10822 27.66856 25626 ft 425 kts 253°
2026-04-15 15:56 41.09867 27.63192 26151 ft 426 kts 253°
2026-04-15 15:56 41.08894 27.59464 26676 ft 428 kts 253°
2026-04-15 15:57 41.07917 27.55718 27167 ft 429 kts 253°
2026-04-15 15:57 41.06941 27.51987 27641 ft 431 kts 253°
2026-04-15 15:57 41.05962 27.48246 28065 ft 432 kts 253°
2026-04-15 15:57 41.04985 27.44522 28173 ft 433 kts 253°
2026-04-15 15:58 41.03003 27.36981 28173 ft 431 kts 253°
2026-04-15 15:58 41.01033 27.29514 28176 ft 431 kts 252°
2026-04-15 15:59 40.99049 27.22013 28172 ft 431 kts 252°
2026-04-15 15:59 40.97065 27.14544 28167 ft 431 kts 252°
2026-04-15 16:00 40.95080 27.07098 28160 ft 431 kts 252°
2026-04-15 16:00 40.93279 26.99562 28156 ft 430 kts 258°
2026-04-15 16:01 40.92279 26.91745 28156 ft 429 kts 265°
2026-04-15 16:01 40.91806 26.83939 28153 ft 429 kts 266°
2026-04-15 16:02 40.91349 26.76084 28152 ft 429 kts 266°
2026-04-15 16:02 40.90888 26.68248 28148 ft 429 kts 266°
2026-04-15 16:03 40.90414 26.60351 28148 ft 430 kts 266°
2026-04-15 16:03 40.89940 26.52531 28143 ft 431 kts 266°
2026-04-15 16:04 40.89453 26.44597 28143 ft 431 kts 266°
2026-04-15 16:04 40.88966 26.36772 28139 ft 431 kts 266°
2026-04-15 16:05 40.88469 26.28880 28137 ft 431 kts 265°
2026-04-15 16:05 40.87848 26.21032 28134 ft 430 kts 263°
2026-04-15 16:06 40.87475 26.17125 27917 ft 425 kts 263°
2026-04-15 16:06 40.87109 26.13314 27309 ft 424 kts 263°
2026-04-15 16:06 40.86731 26.09430 26627 ft 423 kts 263°
2026-04-15 16:06 40.86360 26.05617 25980 ft 421 kts 263°
2026-04-15 16:07 40.85965 26.01802 25398 ft 418 kts 259°
2026-04-15 16:07 40.85037 25.98198 25133 ft 421 kts 244°
2026-04-15 16:07 40.81152 25.92392 25126 ft 433 kts 216°
2026-04-15 16:08 40.78545 25.90326 25136 ft 435 kts 213°
2026-04-15 16:08 40.75943 25.88284 25132 ft 433 kts 215°
2026-04-15 16:08 40.73676 25.85721 25119 ft 428 kts 230°
2026-04-15 16:08 40.71758 25.82737 25128 ft 428 kts 232°
2026-04-15 16:09 40.69841 25.79733 25122 ft 428 kts 231°
2026-04-15 16:09 40.67912 25.76747 25122 ft 429 kts 231°
2026-04-15 16:09 40.65973 25.73791 25124 ft 429 kts 231°
2026-04-15 16:09 40.63990 25.70798 25126 ft 429 kts 231°
2026-04-15 16:10 40.62022 25.67851 25127 ft 429 kts 230°
2026-04-15 16:10 40.60037 25.64892 25126 ft 429 kts 230°
2026-04-15 16:10 40.58060 25.61956 25123 ft 429 kts 230°
2026-04-15 16:10 40.56057 25.58990 25122 ft 429 kts 230°
2026-04-15 16:11 40.54092 25.56085 25118 ft 430 kts 230°
2026-04-15 16:11 40.52111 25.53160 25119 ft 429 kts 230°
2026-04-15 16:11 40.50113 25.50214 25118 ft 429 kts 230°
2026-04-15 16:11 40.48129 25.47292 25118 ft 429 kts 230°
2026-04-15 16:12 40.46136 25.44359 25117 ft 429 kts 230°
2026-04-15 16:12 40.44146 25.41435 25118 ft 429 kts 230°
2026-04-15 16:12 40.42164 25.38523 25114 ft 430 kts 230°
2026-04-15 16:12 40.40168 25.35595 25114 ft 429 kts 230°
2026-04-15 16:13 40.38183 25.32687 25117 ft 430 kts 229°
2026-04-15 16:13 40.36184 25.29761 25116 ft 431 kts 229°
2026-04-15 16:13 40.34193 25.26851 25113 ft 430 kts 229°
2026-04-15 16:13 40.32199 25.23935 25113 ft 431 kts 229°
2026-04-15 16:14 40.30195 25.21010 25112 ft 431 kts 229°
2026-04-15 16:14 40.28184 25.18079 25113 ft 431 kts 229°
2026-04-15 16:14 40.26176 25.15152 25113 ft 431 kts 229°
2026-04-15 16:14 40.24269 25.12376 25114 ft 431 kts 229°
2026-04-15 16:15 40.22260 25.09456 25116 ft 431 kts 229°
2026-04-15 16:15 40.20256 25.06547 25115 ft 431 kts 229°
2026-04-15 16:15 40.18241 25.03624 25115 ft 431 kts 229°
2026-04-15 16:15 40.16256 25.00746 25114 ft 430 kts 229°
2026-04-15 16:16 40.14252 24.97843 25115 ft 430 kts 229°
2026-04-15 16:16 40.12249 24.94942 25116 ft 430 kts 229°
2026-04-15 16:16 40.10255 24.92058 25046 ft 427 kts 229°
2026-04-15 16:16 40.08289 24.89214 24593 ft 424 kts 229°
2026-04-15 16:17 40.06294 24.86334 23919 ft 424 kts 229°
2026-04-15 16:17 40.04328 24.83500 22955 ft 419 kts 229°
2026-04-15 16:17 40.02389 24.80706 22159 ft 418 kts 228°
2026-04-15 16:17 40.00451 24.77917 21693 ft 414 kts 228°
2026-04-15 16:18 39.98531 24.75157 21180 ft 411 kts 228°
2026-04-15 16:18 39.96625 24.72419 20648 ft 408 kts 228°
2026-04-15 16:18 39.94722 24.69687 20138 ft 405 kts 228°
2026-04-15 16:18 39.92841 24.66990 19630 ft 402 kts 228°
2026-04-15 16:19 39.90969 24.64307 19111 ft 399 kts 228°
2026-04-15 16:19 39.89120 24.61661 18604 ft 396 kts 227°
2026-04-15 16:19 39.87281 24.59031 18114 ft 393 kts 227°
2026-04-15 16:19 39.85458 24.56426 17601 ft 391 kts 227°
2026-04-15 16:20 39.83643 24.53838 17115 ft 388 kts 227°
2026-04-15 16:20 39.81838 24.51262 16642 ft 385 kts 227°
2026-04-15 16:20 39.80049 24.48711 16156 ft 382 kts 227°
2026-04-15 16:20 39.78261 24.46165 15666 ft 380 kts 227°
2026-04-15 16:21 39.76467 24.43613 15193 ft 377 kts 227°
2026-04-15 16:21 39.74721 24.41130 14735 ft 374 kts 227°
2026-04-15 16:21 39.72985 24.38662 14277 ft 370 kts 227°
2026-04-15 16:21 39.71237 24.36181 13805 ft 368 kts 227°
2026-04-15 16:22 39.69518 24.33744 13333 ft 365 kts 226°
2026-04-15 16:22 39.67809 24.31321 12847 ft 363 kts 226°
2026-04-15 16:22 39.66116 24.28925 12360 ft 361 kts 226°
2026-04-15 16:22 39.64430 24.26538 11874 ft 359 kts 226°
2026-04-15 16:23 39.62751 24.24164 11397 ft 357 kts 226°
2026-04-15 16:23 39.61062 24.21779 10912 ft 356 kts 226°
2026-04-15 16:23 39.59396 24.19427 10433 ft 354 kts 227°
2026-04-15 16:23 39.57730 24.17076 9951 ft 352 kts 226°
2026-04-15 16:24 39.56095 24.14772 9482 ft 350 kts 226°
2026-04-15 16:24 39.54451 24.12453 9266 ft 341 kts 226°
2026-04-15 16:24 39.52877 24.10238 9092 ft 331 kts 226°
2026-04-15 16:24 39.51347 24.08083 8928 ft 322 kts 226°
2026-04-15 16:25 39.49851 24.05980 8769 ft 313 kts 226°
2026-04-15 16:25 39.48385 24.03920 8616 ft 305 kts 226°
2026-04-15 16:25 39.46968 24.01933 8469 ft 297 kts 226°
2026-04-15 16:25 39.45594 24.00006 8327 ft 290 kts 226°
2026-04-15 16:26 39.44243 23.98113 8192 ft 283 kts 226°
2026-04-15 16:26 39.42910 23.96246 8039 ft 277 kts 226°
2026-04-15 16:26 39.41606 23.94422 7778 ft 276 kts 225°
2026-04-15 16:26 39.40302 23.92597 7480 ft 276 kts 225°
2026-04-15 16:27 39.39013 23.90796 7196 ft 276 kts 225°
2026-04-15 16:27 39.37702 23.88963 6911 ft 276 kts 225°
2026-04-15 16:27 39.36407 23.87156 6636 ft 276 kts 225°
2026-04-15 16:27 39.35101 23.85330 6365 ft 275 kts 225°
2026-04-15 16:28 39.33797 23.83514 6093 ft 275 kts 225°
2026-04-15 16:28 39.32503 23.81713 5821 ft 274 kts 225°
2026-04-15 16:28 39.31208 23.79909 5557 ft 274 kts 225°
2026-04-15 16:28 39.29922 23.78118 5291 ft 274 kts 226°
2026-04-15 16:29 39.28637 23.76328 5025 ft 274 kts 226°
2026-04-15 16:29 39.27327 23.74505 4743 ft 274 kts 226°
2026-04-15 16:29 39.26043 23.72720 4478 ft 274 kts 226°
2026-04-15 16:29 39.24744 23.70916 4221 ft 274 kts 226°
2026-04-15 16:30 39.23451 23.69121 4070 ft 271 kts 226°
2026-04-15 16:30 39.22168 23.67339 4023 ft 275 kts 226°
2026-04-15 16:30 39.20867 23.65535 4000 ft 275 kts 226°
2026-04-15 16:30 39.19555 23.63715 3992 ft 275 kts 226°
2026-04-15 16:31 39.18209 23.61993 3987 ft 274 kts 218°
2026-04-15 16:31 39.16651 23.60643 3989 ft 272 kts 208°
2026-04-15 16:31 39.14959 23.59511 3988 ft 271 kts 205°
2026-04-15 16:31 39.13291 23.58450 3889 ft 265 kts 205°
2026-04-15 16:32 39.11642 23.57400 3776 ft 260 kts 205°
2026-04-15 16:32 39.10057 23.56379 3666 ft 255 kts 205°
2026-04-15 16:32 39.08485 23.55360 3456 ft 252 kts 205°
2026-04-15 16:32 39.06927 23.54347 3095 ft 246 kts 205°
2026-04-15 16:33 39.05435 23.53375 2873 ft 234 kts 206°
2026-04-15 16:33 39.04036 23.52463 2721 ft 221 kts 206°
2026-04-15 16:33 39.02726 23.51538 2598 ft 208 kts 221°
2026-04-15 16:33 39.02035 23.50056 2594 ft 186 kts 265°
2026-04-15 16:34 39.02195 23.48510 2617 ft 174 kts 301°
2026-04-15 16:34 39.02964 23.47351 2616 ft 167 kts 330°
2026-04-15 16:34 39.03962 23.46583 2580 ft 166 kts 341°
2026-04-15 16:34 39.05071 23.46373 2471 ft 162 kts
2026-04-15 16:35 39.06188 23.46366 2257 ft 160 kts
2026-04-15 16:35 39.07298 23.46438 1928 ft 159 kts 15°
2026-04-15 16:35 39.08367 23.46714 1751 ft 152 kts 16°
2026-04-15 16:35 39.09359 23.47040 1624 ft 142 kts 16°
2026-04-15 16:36 39.10319 23.47327 1406 ft 140 kts 15°
2026-04-15 16:36 39.11256 23.47636 1193 ft 138 kts 17°
2026-04-15 16:36 39.12198 23.47944 1057 ft 139 kts 18°
2026-04-15 16:36 39.13102 23.48325 883 ft 139 kts 20°
2026-04-15 16:37 39.14024 23.48734 697 ft 138 kts 20°
2026-04-15 16:37 39.14929 23.49134 512 ft 138 kts 20°
2026-04-15 16:37 39.15836 23.49536 315 ft 137 kts 19°
2026-04-15 16:37 39.16739 23.49933 113 ft 136 kts 19°
2026-04-15 16:38 39.17607 23.50317 47 ft 113 kts 18°
2026-04-15 16:38 39.18065 23.50518 47 ft 31 kts 19°
2026-04-15 16:38 39.18276 23.50612 47 ft 30 kts 19°
2026-04-15 16:38 39.18441 23.50684 47 ft 12 kts 14°
2026-04-15 16:39 39.18491 23.50678 47 ft 1 kts 15°
2026-04-15 16:39 39.18498 23.50699 47 ft 2 kts 106°
2026-04-15 16:39 39.18480 23.50702 47 ft 4 kts 198°
2026-04-15 16:39 39.18439 23.50684 47 ft 7 kts 198°
2026-04-15 16:40 39.18383 23.50660 47 ft 9 kts 200°
2026-04-15 16:40 39.18315 23.50629 47 ft 11 kts 199°
2026-04-15 16:40 39.18237 23.50594 47 ft 12 kts 199°
2026-04-15 16:40 39.18150 23.50556 47 ft 13 kts 199°
2026-04-15 16:41 39.18056 23.50515 47 ft 14 kts 199°
2026-04-15 16:41 39.17958 23.50469 47 ft 11 kts 208°
2026-04-15 16:41 39.17913 23.50394 47 ft 10 kts 265°
2026-04-15 16:41 39.17885 23.50324 47 ft 7 kts 217°
2026-04-15 16:42 39.17839 23.50290 47 ft 5 kts 214°
2026-04-15 16:42 39.17827 23.50267 47 ft 0 kts 239°
2026-04-15 16:42 39.17825 23.50262 47 ft 1 kts 255°
2026-04-15 16:43 39.17828 23.50250 47 ft 1 kts 289°
2026-04-15 16:43 39.17835 23.50240 47 ft 1 kts 323°
2026-04-15 16:43 39.17853 23.50234 47 ft 3 kts 346°
2026-04-15 16:43 39.17883 23.50221 47 ft 2 kts 334°
2026-04-15 16:44 39.17884 23.50220 47 ft 0 kts 333°